Content
SEND FEEDBACK

Daily
Averages
Monthly
Summary
United Kingdom

HARTOGATE, ENGLAND


Home > Europe > United Kingdom > England
Elevation: 115 feet     Latitude: 54 08N     Longitude: 001 25W

WEATHER
 
SELECT A DAY
Number of Records: 59,100;   Date Range: 6/2/04 - 8/18/14
 
SHARE

PRINT THIS DATA

[ ← Previous Day ]
WEATHER ALMANAC - SEPTEMBER 15, 2013
[ Next Day → ]
[ °C ]   °F
Weather ElementAverageHighLow
Temperature51 °F61 °F (3:50 pm)42.8 °F (12:50 am)
Dewpoint45.4 °F58 °F (3:50 pm)37.4 °F (8:50 pm)
Humidity81.1 %100 % (2:50 am)59 % (5:50 pm)
Barometer29.58 in30.01 in (12:50 am)29.33 in (3:50 pm)
Wind Speed14.3 mph26.5 mph (3:50 pm)
Wind Gust41.4 mph (3:50 pm)
Weather ElementAverage
Visibility7.3 mi
Wind DirectionSW (223.9 °)

Weather ElementTotal
Precipitation---
Heating Degree Days13.1 (Base 65)
Growing Degree Days1.9 (Base 50)
Averaged from 28 records on September 15, 2013
WEATHER CONDITIONS BREAKOUT
WIND DIRECTION BREAKOUT
WEATHER BY HOUR - SEPTEMBER 15, 2013
[ °C ]   °F
Local TimeTemperatureDewpointHumidityBarometerVisibilityWind DirectionWind SpeedGust SpeedPrecipitationEventsConditions
12:50 AM42.8 °F39.2 °F87 %30.01 in6.2 miWSW (240°)5.8 mph
1:50 AM42.8 °F41.0 °F93 %29.98 in6.2 miSouth (190°)2.3 mph
2:50 AM42.8 °F42.8 °F100 %29.95 in6.2 miSE (130°)3.5 mphPartly Cloudy
3:50 AM42.8 °F42.8 °F100 %29.92 in6.2 miSW (220°)6.9 mphScattered Clouds
4:50 AM44.6 °F42.8 °F93 %29.86 in6.2 miSSW (210°)6.9 mph
5:50 AM48.2 °F44.6 °F87 %29.83 in6.2 miSouth (180°)10.4 mphPartly Cloudy
6:50 AM46.4 °F44.6 °F93 %29.77 in5.0 miSouth (180°)9.2 mphMostly Cloudy
7:50 AM48.2 °F44.6 °F87 %29.74 in6.2 miSouth (190°)10.4 mphOvercast
8:50 AM48.2 °F46.4 °F93 %29.68 in6.2 miSouth (170°)12.7 mphMostly Cloudy
9:50 AM51.0 °F47.0 °F80 %29.65 in15.0 miSouth (170°)15.0 mphScattered Clouds
9:50 AM51.8 °F46.4 °F82 %29.62 in6.2 miSouth (170°)15.0 mphMostly Cloudy
10:50 AM53.6 °F50.0 °F88 %29.56 in6.2 miSSW (200°)20.7 mphMostly Cloudy
11:50 AM55.4 °F50.0 °F82 %29.50 in6.2 miSSW (210°)21.9 mphMostly Cloudy
12:50 PM55.4 °F50.0 °F82 %29.44 in6.2 miSSW (210°)20.7 mphMostly Cloudy
12:50 PM55.0 °F51.0 °F80 %29.47 in9.0 miSSW (210°)20.7 mphScattered Clouds
1:50 PM57.2 °F51.8 °F82 %29.42 in6.2 miSouth (190°)17.3 mphMostly Cloudy
2:50 PM59.0 °F55.4 °F88 %29.36 in6.2 miSSW (210°)19.6 mphScattered Clouds
3:50 PM61.0 °F58.0 °F85 %29.35 in15.0 miWSW (250°)26.5 mphMostly Cloudy
3:50 PM60.8 °F57.2 °F88 %29.33 in6.2 miWSW (250°)26.5 mph41.4 mphScattered Clouds
4:50 PM60.8 °F48.2 °F63 %29.36 in6.2 miWNW (290°)24.2 mph36.8 mphPartly Cloudy
5:50 PM57.2 °F42.8 °F59 %29.39 in6.2 miWest (280°)18.4 mph31.1 mphPartly Cloudy
6:50 PM53.6 °F41.0 °F62 %29.42 in6.2 miWNW (290°)10.4 mph
7:50 PM50.0 °F39.2 °F66 %29.42 in6.2 miWest (280°)12.7 mphPartly Cloudy
8:50 PM48.2 °F37.4 °F66 %29.44 in6.2 miWest (280°)15.0 mphScattered Clouds
9:50 PM47.0 °F40.0 °F67 %29.45 in19.0 miWest (280°)13.8 mphScattered Clouds
9:50 PM48.2 °F39.2 °F71 %29.44 in6.2 miWest (280°)13.8 mphPartly Cloudy
10:50 PM48.2 °F39.2 °F71 %29.44 in6.2 miWest (270°)11.5 mphPartly Cloudy
11:50 PM46.4 °F39.2 °F76 %29.44 in6.2 miWSW (240°)8.1 mphPartly Cloudy
Hourly data recorded from EGXD, located miles away from Hartogate, England







STORIES FROM OUR PARTNERS